This is the latest recevied weather packets stored in our database for station/object OK1PNK-5. If no packets are shown the sender has not sent any weather packets the latest 10 day(s).
| Time | Temp. | Humidity | Pressure | Rain* | Wind** | Luminosity | Snow |
|---|---|---|---|---|---|---|---|
| 1778077794 | 21.67° C | 59% | 963.3 hPa | 0 mm | - | - | - |
| 1778077194 | 21.67° C | 59% | 963.4 hPa | 0 mm | - | - | - |
| 1778076594 | 21.67° C | 59% | 963.5 hPa | 0 mm | - | - | - |
| 1778075994 | 21.67° C | 59% | 963.5 hPa | 0 mm | - | - | - |
| 1778075394 | 22.22° C | 59% | 963.7 hPa | 0 mm | - | - | - |
| 1778074794 | 22.22° C | 60% | 963.8 hPa | 0 mm | - | - | - |
| 1778074194 | 22.22° C | 61% | 963.7 hPa | 0 mm | - | - | - |
| 1778073594 | 21.67° C | 61% | 963.7 hPa | 0 mm | - | - | - |
| 1778072994 | 21.67° C | 61% | 963.7 hPa | 0 mm | - | - | - |
| 1778072394 | 21.67° C | 61% | 963.9 hPa | 0 mm | - | - | - |
| 1778071794 | 21.11° C | 60% | 963.9 hPa | 0 mm | - | - | - |
| 1778071194 | 21.11° C | 62% | 964 hPa | 0 mm | - | - | - |
| 1778070594 | 20.56° C | 61% | 964.2 hPa | 0 mm | - | - | - |
| 1778069994 | 20.56° C | 61% | 964.5 hPa | 0 mm | - | - | - |
| 1778069394 | 20.56° C | 62% | 964.6 hPa | 0 mm | - | - | - |
| 1778068794 | 20.56° C | 63% | 964.7 hPa | 0 mm | - | - | - |
| 1778068194 | 20.56° C | 63% | 964.7 hPa | 0 mm | - | - | - |
| 1778067594 | 20.56° C | 63% | 964.7 hPa | 0 mm | - | - | - |
| 1778066994 | 20.56° C | 63% | 964.8 hPa | 0 mm | - | - | - |
| 1778066394 | 20.56° C | 65% | 964.9 hPa | 0 mm | - | - | - |
| 1778065794 | 20° C | 66% | 964.9 hPa | 0 mm | - | - | - |
| 1778065194 | 19.44° C | 67% | 965 hPa | 0 mm | - | - | - |
| 1778064594 | 19.44° C | 69% | 965.1 hPa | 0 mm | - | - | - |
| 1778063994 | 18.89° C | 70% | 965.2 hPa | 0 mm | - | - | - |
| 1778063394 | 18.89° C | 69% | 965.3 hPa | 0 mm | - | - | - |
* Rain latest hour (hover to see other rain measurements)
** Current wind speed in m/s (hover to see current wind gust speed)